Location: Three Oaks Observatory
(31.1535°N, 83.5955°W)
Time: 09:40:31
(UTC-05:00)

FALCONSAT 3 - Pass Details

Date: 24 October 2019
Orbit: 454 x 457 km, 35.4° (Epoch: 12 November)

Event Time Altitude Azimuth Distance (km) Brightness Sun altitude
Exits shadow 05:27:18 18° 66° (ENE) 1,173 ? -29.8°
Drops below altitude 10° 05:28:26 10° 75° (ENE) 1,580 ? -29.5°
Sets 05:30:41 0° 82° (E) 2,451 ? -29.0°
